Time,TemperatureF,DewpointF,PressureIn,WindDirection,WindDirectionDegrees,WindSpeedMPH,WindSpeedGustMPH,Humidity,HourlyPrecipIn,Conditions,Clouds,dailyrainin,SoftwareType,DateUTC
2013-05-28 00:07:00,42.8,41.0,30.12,SSW,213,0.0,1.0,92,0.00,,,0.00,weatherlink.com 1.10,2013-05-28 04:07:00,
2013-05-28 00:22:00,42.2,40.0,30.11,SSW,213,0.0,0.0,92,0.00,,,0.00,weatherlink.com 1.10,2013-05-28 04:22:00,
2013-05-28 00:37:00,41.8,40.0,30.11,SSW,213,0.0,1.0,93,0.00,,,0.00,weatherlink.com 1.10,2013-05-28 04:37:00,
2013-05-28 00:52:00,41.6,40.0,30.12,SSW,213,0.0,0.0,94,0.00,,,0.00,weatherlink.com 1.10,2013-05-28 04:52:00,
2013-05-28 01:07:00,41.4,40.0,30.13,SSW,213,0.0,1.0,94,0.00,,,0.00,weatherlink.com 1.10,2013-05-28 05:07:00,
2013-05-28 01:22:00,41.0,39.0,30.13,SSW,213,0.0,0.0,94,0.00,,,0.00,weatherlink.com 1.10,2013-05-28 05:22:00,
2013-05-28 01:37:00,40.5,39.0,30.13,SSW,213,0.0,0.0,94,0.00,,,0.00,weatherlink.com 1.10,2013-05-28 05:37:00,
2013-05-28 01:52:00,39.9,38.0,30.13,SSW,213,0.0,0.0,94,0.00,,,0.00,weatherlink.com 1.10,2013-05-28 05:52:00,
2013-05-28 02:07:00,39.5,38.0,30.14,SSW,213,0.0,0.0,95,0.00,,,0.00,weatherlink.com 1.10,2013-05-28 06:07:00,
2013-05-28 02:22:00,39.4,38.0,30.14,SSW,213,0.0,0.0,95,0.00,,,0.00,weatherlink.com 1.10,2013-05-28 06:22:00,
2013-05-28 02:37:00,39.3,38.0,30.14,SSW,213,0.0,0.0,95,0.00,,,0.00,weatherlink.com 1.10,2013-05-28 06:37:00,
2013-05-28 02:52:00,39.0,38.0,30.13,SSW,213,0.0,0.0,95,0.00,,,0.00,weatherlink.com 1.10,2013-05-28 06:52:00,
2013-05-28 03:07:00,38.7,38.0,30.13,SSW,213,0.0,0.0,96,0.00,,,0.00,weatherlink.com 1.10,2013-05-28 07:07:00,
2013-05-28 03:22:00,38.6,38.0,30.13,SSW,213,0.0,0.0,96,0.00,,,0.00,weatherlink.com 1.10,2013-05-28 07:22:00,
2013-05-28 03:37:00,38.4,37.0,30.13,SSW,213,0.0,0.0,96,0.00,,,0.00,weatherlink.com 1.10,2013-05-28 07:37:00,
2013-05-28 03:52:00,38.1,37.0,30.13,SSW,213,0.0,0.0,96,0.00,,,0.00,weatherlink.com 1.10,2013-05-28 07:52:00,
2013-05-28 04:07:00,37.9,37.0,30.13,SSW,213,0.0,0.0,96,0.00,,,0.00,weatherlink.com 1.10,2013-05-28 08:07:00,
2013-05-28 04:22:00,37.6,37.0,30.13,SSW,213,0.0,0.0,96,0.00,,,0.00,weatherlink.com 1.10,2013-05-28 08:22:00,
2013-05-28 04:37:00,37.2,36.0,30.14,SSW,213,0.0,0.0,96,0.00,,,0.00,weatherlink.com 1.10,2013-05-28 08:37:00,
2013-05-28 04:52:00,37.2,36.0,30.14,SSW,213,0.0,0.0,96,0.00,,,0.00,weatherlink.com 1.10,2013-05-28 08:52:00,
2013-05-28 05:07:00,37.0,36.0,30.14,SSW,213,0.0,0.0,96,0.00,,,0.00,weatherlink.com 1.10,2013-05-28 09:07:00,
2013-05-28 05:22:00,36.7,36.0,30.15,SSW,213,0.0,0.0,96,0.00,,,0.00,weatherlink.com 1.10,2013-05-28 09:22:00,
2013-05-28 05:37:00,37.0,36.0,30.15,SSW,213,0.0,0.0,96,0.00,,,0.00,weatherlink.com 1.10,2013-05-28 09:37:00,
2013-05-28 05:52:00,37.2,37.0,30.16,SSW,213,0.0,0.0,97,0.00,,,0.00,weatherlink.com 1.10,2013-05-28 09:52:00,
2013-05-28 06:07:00,37.5,37.0,30.16,SSW,213,0.0,0.0,97,0.00,,,0.00,weatherlink.com 1.10,2013-05-28 10:07:00,
2013-05-28 06:22:00,38.3,38.0,30.16,SSW,213,0.0,1.0,97,0.00,,,0.00,weatherlink.com 1.10,2013-05-28 10:22:00,
2013-05-28 06:37:00,39.2,39.0,30.16,SSW,213,0.0,0.0,97,0.00,,,0.00,weatherlink.com 1.10,2013-05-28 10:37:00,
2013-05-28 06:52:00,39.9,39.0,30.17,SSW,213,0.0,1.0,97,0.00,,,0.00,weatherlink.com 1.10,2013-05-28 10:52:00,
2013-05-28 07:07:00,40.8,40.0,30.17,SSW,213,0.0,0.0,97,0.00,,,0.00,weatherlink.com 1.10,2013-05-28 11:07:00,
2013-05-28 07:22:00,42.7,42.0,30.17,SSW,213,0.0,1.0,97,0.00,,,0.00,weatherlink.com 1.10,2013-05-28 11:22:00,
2013-05-28 07:37:00,44.7,43.0,30.17,SSW,213,0.0,1.0,95,0.00,,,0.00,weatherlink.com 1.10,2013-05-28 11:37:00,
2013-05-28 07:52:00,47.3,44.0,30.17,SSW,213,0.0,0.0,88,0.00,,,0.00,weatherlink.com 1.10,2013-05-28 11:52:00,
2013-05-28 08:08:00,50.0,45.0,30.17,SSW,203,0.0,1.0,83,0.00,,,0.00,weatherlink.com 1.10,2013-05-28 12:08:00,
2013-05-28 08:23:00,52.3,46.0,30.16,South,186,0.0,2.0,79,0.00,,,0.00,weatherlink.com 1.10,2013-05-28 12:23:00,
2013-05-28 08:38:00,54.5,48.0,30.16,South,186,1.0,2.0,78,0.00,,,0.00,weatherlink.com 1.10,2013-05-28 12:38:00,
2013-05-28 08:53:00,55.9,45.0,30.16,South,186,0.0,1.0,66,0.00,,,0.00,weatherlink.com 1.10,2013-05-28 12:53:00,
2013-05-28 09:08:00,58.9,46.0,30.16,South,188,0.0,1.0,62,0.00,,,0.00,weatherlink.com 1.10,2013-05-28 13:08:00,
2013-05-28 09:23:00,60.9,45.0,30.15,SW,230,0.0,2.0,57,0.00,,,0.00,weatherlink.com 1.10,2013-05-28 13:23:00,
2013-05-28 09:38:00,62.4,44.0,30.15,SW,227,1.0,3.0,51,0.00,,,0.00,weatherlink.com 1.10,2013-05-28 13:38:00,
2013-05-28 09:53:00,63.7,47.0,30.15,SSW,194,1.0,5.0,55,0.00,,,0.00,weatherlink.com 1.10,2013-05-28 13:53:00,
2013-05-28 10:08:00,64.4,40.0,30.15,SE,140,0.0,5.0,41,0.00,,,0.00,weatherlink.com 1.10,2013-05-28 14:08:00,
2013-05-28 10:23:00,65.1,41.0,30.15,SSW,206,3.0,7.0,42,0.00,,,0.00,weatherlink.com 1.10,2013-05-28 14:23:00,
2013-05-28 10:38:00,65.6,41.0,30.15,SSE,164,4.0,7.0,41,0.00,,,0.00,weatherlink.com 1.10,2013-05-28 14:38:00,
2013-05-28 10:53:00,66.1,42.0,30.15,South,191,0.0,4.0,42,0.00,,,0.00,weatherlink.com 1.10,2013-05-28 14:53:00,
2013-05-28 11:08:00,65.7,41.0,30.15,South,191,3.0,10.0,40,0.00,,,0.00,weatherlink.com 1.10,2013-05-28 15:08:00,
2013-05-28 11:23:00,66.0,41.0,30.15,South,172,0.0,7.0,40,0.00,,,0.00,weatherlink.com 1.10,2013-05-28 15:23:00,
2013-05-28 11:38:00,66.6,43.0,30.15,South,188,0.0,8.0,43,0.00,,,0.00,weatherlink.com 1.10,2013-05-28 15:38:00,
2013-05-28 11:53:00,67.4,43.0,30.15,SSE,155,2.0,7.0,41,0.00,,,0.00,weatherlink.com 1.10,2013-05-28 15:53:00,
2013-05-28 12:08:00,67.5,41.0,30.15,SSW,206,0.0,9.0,38,0.00,,,0.00,weatherlink.com 1.10,2013-05-28 16:08:00,
2013-05-28 12:23:00,67.9,43.0,30.14,SSW,192,1.0,6.0,40,0.00,,,0.00,weatherlink.com 1.10,2013-05-28 16:23:00,
2013-05-28 12:38:00,68.4,43.0,30.14,SW,222,4.0,7.0,40,0.00,,,0.00,weatherlink.com 1.10,2013-05-28 16:38:00,
2013-05-28 12:53:00,68.6,40.0,30.13,SW,215,0.0,7.0,36,0.00,,,0.00,weatherlink.com 1.10,2013-05-28 16:53:00,
2013-05-28 13:08:00,68.9,43.0,30.12,South,183,2.0,9.0,40,0.00,,,0.00,weatherlink.com 1.10,2013-05-28 17:08:00,
2013-05-28 13:23:00,69.3,44.0,30.12,SSW,196,2.0,8.0,41,0.00,,,0.00,weatherlink.com 1.10,2013-05-28 17:23:00,
2013-05-28 13:38:00,70.1,45.0,30.11,WSW,257,0.0,6.0,41,0.00,,,0.00,weatherlink.com 1.10,2013-05-28 17:38:00,
2013-05-28 13:54:00,69.9,44.0,30.11,South,180,1.0,7.0,40,0.00,,,0.00,weatherlink.com 1.10,2013-05-28 17:54:00,
2013-05-28 14:08:00,70.3,43.0,30.11,South,191,2.0,7.0,38,0.00,,,0.00,weatherlink.com 1.10,2013-05-28 18:08:00,
2013-05-28 14:23:00,70.3,44.0,30.11,South,183,0.0,4.0,39,0.00,,,0.00,weatherlink.com 1.10,2013-05-28 18:23:00,
2013-05-28 14:39:00,70.7,45.0,30.10,SW,215,5.0,8.0,40,0.00,,,0.00,weatherlink.com 1.10,2013-05-28 18:39:00,
2013-05-28 14:54:00,70.6,46.0,30.10,SE,140,3.0,9.0,42,0.00,,,0.00,weatherlink.com 1.10,2013-05-28 18:54:00,
2013-05-28 15:09:00,71.3,46.0,30.10,SSE,163,1.0,7.0,41,0.00,,,0.00,weatherlink.com 1.10,2013-05-28 19:09:00,
2013-05-28 15:24:00,71.2,44.0,30.09,SSW,209,1.0,7.0,38,0.00,,,0.00,weatherlink.com 1.10,2013-05-28 19:24:00,
2013-05-28 15:39:00,71.3,44.0,30.09,SSW,194,3.0,5.0,37,0.00,,,0.00,weatherlink.com 1.10,2013-05-28 19:39:00,
2013-05-28 15:54:00,71.5,47.0,30.08,South,181,3.0,8.0,42,0.00,,,0.00,weatherlink.com 1.10,2013-05-28 19:54:00,
2013-05-28 16:09:00,71.4,44.0,30.08,SW,217,0.0,7.0,38,0.00,,,0.00,weatherlink.com 1.10,2013-05-28 20:09:00,
2013-05-28 16:24:00,71.5,46.0,30.08,SSW,202,0.0,7.0,41,0.00,,,0.00,weatherlink.com 1.10,2013-05-28 20:24:00,
2013-05-28 16:39:00,70.4,44.0,30.08,South,173,0.0,10.0,39,0.00,,,0.00,weatherlink.com 1.10,2013-05-28 20:39:00,
2013-05-28 16:54:00,70.0,46.0,30.07,South,180,0.0,10.0,42,0.00,,,0.00,weatherlink.com 1.10,2013-05-28 20:54:00,
2013-05-28 17:09:00,70.4,45.0,30.07,SSE,155,0.0,7.0,41,0.00,,,0.00,weatherlink.com 1.10,2013-05-28 21:09:00,
2013-05-28 17:24:00,70.7,46.0,30.07,SSE,167,4.0,9.0,41,0.00,,,0.00,weatherlink.com 1.10,2013-05-28 21:24:00,
2013-05-28 17:39:00,70.5,44.0,30.07,SSE,150,1.0,7.0,39,0.00,,,0.00,weatherlink.com 1.10,2013-05-28 21:39:00,
2013-05-28 17:54:00,70.2,44.0,30.06,SSE,167,2.0,7.0,39,0.00,,,0.00,weatherlink.com 1.10,2013-05-28 21:54:00,
2013-05-28 18:09:00,69.6,44.0,30.06,SSE,165,5.0,10.0,40,0.00,,,0.00,weatherlink.com 1.10,2013-05-28 22:09:00,
2013-05-28 18:24:00,69.0,43.0,30.06,SSE,157,1.0,7.0,39,0.00,,,0.00,weatherlink.com 1.10,2013-05-28 22:24:00,
2013-05-28 18:39:00,68.8,45.0,30.06,SE,145,4.0,11.0,42,0.00,,,0.00,weatherlink.com 1.10,2013-05-28 22:39:00,
2013-05-28 19:09:00,67.0,45.0,30.06,South,190,3.0,10.0,46,0.00,,,0.00,weatherlink.com 1.10,2013-05-28 23:09:00,
2013-05-28 19:24:00,65.5,45.0,30.07,SSW,211,5.0,7.0,48,0.00,,,0.00,weatherlink.com 1.10,2013-05-28 23:24:00,
2013-05-28 19:39:00,64.0,44.0,30.07,South,187,0.0,5.0,49,0.00,,,0.00,weatherlink.com 1.10,2013-05-28 23:39:00,
2013-05-28 19:54:00,62.9,43.0,30.08,South,171,0.0,3.0,49,0.00,,,0.00,weatherlink.com 1.10,2013-05-28 23:54:00,
2013-05-28 20:09:00,62.0,43.0,30.08,South,176,0.0,2.0,51,0.00,,,0.00,weatherlink.com 1.10,2013-05-29 00:09:00,
2013-05-28 20:24:00,59.7,45.0,30.09,South,177,0.0,3.0,59,0.00,,,0.00,weatherlink.com 1.10,2013-05-29 00:24:00,
2013-05-28 20:39:00,57.3,46.0,30.09,South,176,0.0,1.0,66,0.00,,,0.00,weatherlink.com 1.10,2013-05-29 00:39:00,
2013-05-28 20:54:00,56.3,46.0,30.09,South,176,0.0,1.0,68,0.00,,,0.00,weatherlink.com 1.10,2013-05-29 00:54:00,
2013-05-28 21:09:00,55.0,46.0,30.09,South,177,0.0,2.0,73,0.00,,,0.00,weatherlink.com 1.10,2013-05-29 01:09:00,
2013-05-28 21:24:00,54.0,46.0,30.10,South,176,0.0,1.0,75,0.00,,,0.00,weatherlink.com 1.10,2013-05-29 01:24:00,
2013-05-28 21:39:00,53.4,47.0,30.10,South,177,0.0,1.0,79,0.00,,,0.00,weatherlink.com 1.10,2013-05-29 01:39:00,
2013-05-28 21:54:00,52.7,47.0,30.10,South,176,0.0,0.0,80,0.00,,,0.00,weatherlink.com 1.10,2013-05-29 01:54:00,
2013-05-28 22:09:00,52.1,46.0,30.11,South,177,0.0,0.0,80,0.00,,,0.00,weatherlink.com 1.10,2013-05-29 02:09:00,
2013-05-28 22:24:00,51.4,46.0,30.11,South,176,0.0,0.0,82,0.00,,,0.00,weatherlink.com 1.10,2013-05-29 02:24:00,
2013-05-28 22:39:00,51.0,46.0,30.11,South,177,0.0,0.0,84,0.00,,,0.00,weatherlink.com 1.10,2013-05-29 02:39:00,
2013-05-28 22:54:00,50.6,46.0,30.10,South,177,0.0,1.0,84,0.00,,,0.00,weatherlink.com 1.10,2013-05-29 02:54:00,
2013-05-28 23:09:00,50.2,46.0,30.10,South,177,0.0,1.0,85,0.00,,,0.00,weatherlink.com 1.10,2013-05-29 03:09:00,
2013-05-28 23:24:00,49.6,46.0,30.10,South,177,0.0,0.0,86,0.00,,,0.00,weatherlink.com 1.10,2013-05-29 03:24:00,
2013-05-28 23:39:00,49.5,46.0,30.10,South,177,0.0,1.0,86,0.00,,,0.00,weatherlink.com 1.10,2013-05-29 03:39:00,
2013-05-28 23:54:00,49.1,45.0,30.10,South,177,0.0,0.0,87,0.00,,,0.00,weatherlink.com 1.10,2013-05-29 03:54:00,